User: anonymous   Login
Location: Hains Lake
(37.8540°N, 99.8578°W)
Time: 13:44:39
(UTC+00:00)
Language:

STARLINK-1052 - Orbit

View from above orbital plane
View from above orbital plane
View from above satellite
View from above satellite

Ground track
Ground track

The orbit data is extracted from the following two-line orbital elements,

1 44739C 19074AC  20053.52366872  .00004504  00000-0  30845-3 0   534
2 44739  52.9958  34.9852 0001990  50.0170  84.4228 15.05581170    12
Epoch (UTC): 22 February 2020 12:34:04
Eccentricity: 0.0001990
inclination: 52.9958°
perigee height: 548 km
apogee height: 551 km
right ascension of ascending node: 34.9852°
argument of perigee: 50.0170°
revolutions per day: 15.05581170
mean anomaly at epoch: 84.4228°
orbit number at epoch: 1

The dashed part of the orbit path shows where the satellite is in the earth's shadow,  

DLR